When you browse on this site, cookies collect data to enhance your experience and personalize the content and advertising you see.
Visit our Privacy Policy to learn more. By continuing to use the site, you agree to this use of cookies and data.
  • In Czech Republic
  • List of Countries
  • For 7 days
  • Water Temperature
  • Satellite Maps
  • Weather Map
  • Weather Widgets
  • user-avatar
    Login

    Hourly Weather Perekol

    Today, 16 July, Tuesday

    Time Temperature Precipitation Wind Pressure Humidity
    00:00 +13°C° 0 mm 1 mps 743 mmHg 90%
    01:00 +13°C° 0 mm 1 mps 743 mmHg 91%
    02:00 +12°C° 0 mm 1 mps 744 mmHg 90%
    03:00 +12°C° 0 mm 1 mps 743 mmHg 90%
    04:00 +11°C° 0 mm 0 mps 743 mmHg 90%
    05:00 +11°C° 0 mm 0 mps 743 mmHg 90%
    06:00 +13°C° 0 mm 0 mps 743 mmHg 84%
    07:00 +15°C° 0 mm 0 mps 743 mmHg 78%
    08:00 +17°C° 0 mm 0 mps 743 mmHg 71%
    09:00 +21°C° 0.3 mm 1 mps 743 mmHg 66%
    10:00 +22°C° 0.3 mm 1 mps 743 mmHg 60%
    11:00 +23°C° 0.3 mm 1 mps 742 mmHg 55%
    12:00 +23°C° 0.3 mm 1 mps 742 mmHg 55%
    13:00 +24°C° 0.3 mm 2 mps 742 mmHg 55%
    14:00 +24°C° 0.3 mm 2 mps 741 mmHg 55%
    15:00 +23°C° 0.5 mm 2 mps 741 mmHg 59%
    16:00 +23°C° 0.5 mm 2 mps 741 mmHg 64%
    17:00 +21°C° 0.5 mm 2 mps 741 mmHg 69%
    18:00 +20°C° 0.5 mm 2 mps 741 mmHg 74%
    19:00 +18°C° 0.5 mm 2 mps 741 mmHg 79%
    20:00 +17°C° 0.5 mm 3 mps 740 mmHg 85%
    21:00 +16°C° 0.1 mm 2 mps 740 mmHg 87%
    22:00 +15°C° 0.1 mm 2 mps 740 mmHg 90%
    23:00 +15°C° 0.1 mm 1 mps 740 mmHg 92%

    Tomorrow, 17 July, Wednesday

    Time Temperature Precipitation Wind Pressure Humidity
    00:00 +14°C° 0.3 mm 1 mps 740 mmHg 93%
    01:00 +14°C° 0.3 mm 1 mps 740 mmHg 94%
    02:00 +14°C° 0.3 mm 2 mps 740 mmHg 95%
    03:00 +13°C° 0.3 mm 2 mps 740 mmHg 96%
    04:00 +13°C° 0.3 mm 2 mps 739 mmHg 97%
    05:00 +12°C° 0.3 mm 2 mps 739 mmHg 97%
    06:00 +13°C° 0 mm 2 mps 739 mmHg 96%
    07:00 +12°C° 0 mm 3 mps 739 mmHg 95%
    08:00 +13°C° 0 mm 3 mps 740 mmHg 94%
    09:00 +13°C° 0 mm 3 mps 739 mmHg 90%
    10:00 +14°C° 0 mm 3 mps 739 mmHg 87%
    11:00 +14°C° 0 mm 4 mps 739 mmHg 84%
    12:00 +15°C° 0.1 mm 4 mps 739 mmHg 77%
    13:00 +18°C° 0.1 mm 4 mps 739 mmHg 70%
    14:00 +19°C° 0.1 mm 4 mps 739 mmHg 64%
    15:00 +19°C° 0.3 mm 3 mps 739 mmHg 67%
    16:00 +19°C° 0.3 mm 3 mps 739 mmHg 70%
    17:00 +18°C° 0.3 mm 3 mps 739 mmHg 73%
    18:00 +17°C° 0.2 mm 2 mps 739 mmHg 79%
    19:00 +16°C° 0.2 mm 2 mps 739 mmHg 85%
    20:00 +14°C° 0.2 mm 2 mps 738 mmHg 91%
    21:00 +14°C° 0 mm 2 mps 739 mmHg 92%
    22:00 +13°C° 0 mm 2 mps 739 mmHg 94%
    23:00 +12°C° 0 mm 2 mps 739 mmHg 95%

    Day after tomorrow, 18 July, Thursday

    Time Temperature Precipitation Wind Pressure Humidity
    00:00 +12°C° 0 mm 2 mps 739 mmHg 95%
    01:00 +10°C° 0 mm 2 mps 739 mmHg 96%
    02:00 +10°C° 0 mm 2 mps 739 mmHg 96%
    03:00 +10°C° 0 mm 2 mps 739 mmHg 96%
    04:00 +10°C° 0 mm 2 mps 739 mmHg 96%
    05:00 +10°C° 0 mm 2 mps 739 mmHg 97%
    06:00 +11°C° 0 mm 3 mps 739 mmHg 95%
    07:00 +12°C° 0 mm 3 mps 739 mmHg 92%
    08:00 +14°C° 0 mm 3 mps 739 mmHg 90%
    09:00 +14°C° 0.3 mm 4 mps 739 mmHg 90%
    10:00 +14°C° 0.3 mm 4 mps 739 mmHg 91%
    11:00 +14°C° 0.3 mm 4 mps 739 mmHg 91%
    12:00 +15°C° 0.4 mm 4 mps 739 mmHg 90%
    13:00 +15°C° 0.4 mm 5 mps 739 mmHg 89%
    14:00 +16°C° 0.4 mm 5 mps 739 mmHg 87%
    15:00 +16°C° 0.5 mm 5 mps 739 mmHg 88%
    16:00 +16°C° 0.5 mm 5 mps 739 mmHg 90%
    17:00 +17°C° 0.5 mm 4 mps 739 mmHg 91%
    18:00 +17°C° 0.4 mm 4 mps 740 mmHg 92%
    19:00 +15°C° 0.4 mm 4 mps 740 mmHg 93%
    20:00 +16°C° 0.4 mm 3 mps 740 mmHg 94%
    21:00 +14°C° 0 mm 3 mps 740 mmHg 95%
    22:00 +14°C° 0 mm 3 mps 740 mmHg 96%
    23:00 +14°C° 0 mm 4 mps 741 mmHg 96%

    19 July, Friday

    Time Temperature Precipitation Wind Pressure Humidity
    00:00 +14°C° 0 mm 4 mps 741 mmHg 96%
    01:00 +14°C° 0 mm 4 mps 741 mmHg 96%
    02:00 +14°C° 0 mm 4 mps 741 mmHg 96%
    03:00 +13°C° 0 mm 4 mps 742 mmHg 96%
    04:00 +13°C° 0 mm 4 mps 742 mmHg 96%
    05:00 +13°C° 0 mm 4 mps 742 mmHg 95%
    06:00 +14°C° 0 mm 4 mps 742 mmHg 91%
    07:00 +15°C° 0 mm 5 mps 743 mmHg 87%
    08:00 +16°C° 0 mm 5 mps 743 mmHg 83%
    09:00 +17°C° 0 mm 5 mps 743 mmHg 76%
    10:00 +20°C° 0 mm 6 mps 743 mmHg 69%
    11:00 +22°C° 0 mm 6 mps 744 mmHg 62%
    12:00 +22°C° 0.1 mm 6 mps 744 mmHg 60%
    13:00 +23°C° 0.1 mm 6 mps 744 mmHg 58%
    14:00 +23°C° 0.1 mm 6 mps 744 mmHg 56%
    15:00 +23°C° 0.1 mm 6 mps 744 mmHg 59%
    16:00 +23°C° 0.1 mm 5 mps 744 mmHg 61%
    17:00 +22°C° 0.1 mm 4 mps 744 mmHg 64%
    18:00 +21°C° 0.1 mm 4 mps 745 mmHg 70%
    19:00 +19°C° 0.1 mm 3 mps 745 mmHg 77%
    20:00 +17°C° 0.1 mm 2 mps 745 mmHg 83%
    21:00 +16°C° 0 mm 2 mps 745 mmHg 86%
    22:00 +16°C° 0 mm 2 mps 746 mmHg 89%
    23:00 +15°C° 0 mm 2 mps 746 mmHg 91%

    20 July, Saturday

    Time Temperature Precipitation Wind Pressure Humidity
    00:00 +14°C° 0 mm 2 mps 746 mmHg 92%
    01:00 +14°C° 0 mm 2 mps 746 mmHg 92%
    02:00 +14°C° 0 mm 2 mps 746 mmHg 93%
    03:00 +13°C° 0 mm 2 mps 746 mmHg 93%
    04:00 +13°C° 0 mm 2 mps 747 mmHg 94%
    05:00 +13°C° 0 mm 2 mps 747 mmHg 94%
    06:00 +15°C° 0 mm 2 mps 747 mmHg 88%
    07:00 +17°C° 0 mm 2 mps 747 mmHg 81%
    08:00 +19°C° 0 mm 3 mps 747 mmHg 75%
    09:00 +20°C° 0 mm 3 mps 747 mmHg 69%
    10:00 +21°C° 0 mm 3 mps 748 mmHg 62%
    11:00 +24°C° 0 mm 3 mps 748 mmHg 56%
    12:00 +24°C° 0 mm 3 mps 748 mmHg 55%
    13:00 +25°C° 0 mm 3 mps 748 mmHg 53%
    14:00 +25°C° 0 mm 3 mps 748 mmHg 52%
    15:00 +25°C° 0 mm 3 mps 748 mmHg 53%
    16:00 +25°C° 0 mm 2 mps 747 mmHg 55%
    17:00 +25°C° 0 mm 2 mps 747 mmHg 56%
    18:00 +23°C° 0 mm 2 mps 747 mmHg 63%
    19:00 +21°C° 0 mm 1 mps 748 mmHg 70%
    20:00 +19°C° 0 mm 1 mps 748 mmHg 77%
    21:00 +18°C° 0 mm 1 mps 748 mmHg 79%
    22:00 +18°C° 0 mm 1 mps 748 mmHg 80%
    23:00 +16°C° 0 mm 1 mps 748 mmHg 82%

    21 July, Sunday

    Time Temperature Precipitation Wind Pressure Humidity
    00:00 +15°C° 0 mm 1 mps 748 mmHg 83%
    01:00 +15°C° 0 mm 1 mps 748 mmHg 84%
    02:00 +15°C° 0 mm 1 mps 748 mmHg 84%
    03:00 +15°C° 0 mm 1 mps 748 mmHg 86%
    04:00 +14°C° 0 mm 1 mps 748 mmHg 87%
    05:00 +14°C° 0 mm 1 mps 748 mmHg 88%
    06:00 +16°C° 0 mm 1 mps 748 mmHg 83%
    07:00 +19°C° 0 mm 1 mps 748 mmHg 77%
    08:00 +21°C° 0 mm 1 mps 748 mmHg 71%
    09:00 +23°C° 0 mm 1 mps 749 mmHg 66%
    10:00 +24°C° 0 mm 1 mps 749 mmHg 61%
    11:00 +25°C° 0 mm 2 mps 749 mmHg 56%
    12:00 +26°C° 0 mm 2 mps 749 mmHg 54%
    13:00 +26°C° 0 mm 2 mps 748 mmHg 52%
    14:00 +27°C° 0 mm 2 mps 748 mmHg 50%
    15:00 +26°C° 0 mm 2 mps 748 mmHg 52%
    16:00 +26°C° 0 mm 2 mps 748 mmHg 55%
    17:00 +26°C° 0 mm 2 mps 748 mmHg 58%
    18:00 +24°C° 0 mm 2 mps 748 mmHg 64%
    19:00 +22°C° 0 mm 1 mps 748 mmHg 70%
    20:00 +20°C° 0 mm 1 mps 748 mmHg 76%
    21:00 +19°C° 0 mm 1 mps 748 mmHg 79%
    22:00 +19°C° 0 mm 1 mps 748 mmHg 82%
    23:00 +18°C° 0 mm 1 mps 748 mmHg 85%
    Show more